Wetbulb
61.95 61.59 60.37 60.07 62.47 63.80 65.35 65.64 66.59 66.82 67.02 66.91 66.73 65.87 65.04 65.53 64.04 64.10 62.27 60.05 59.36 58.77
60.95 60.10 60.53 61.49 64.17 64.92 65.38 66.64 66.91 66.93 66.77 66.57 66.53 65.58 64.90 64.10 64.73 63.43 61.10 60.37 59.50 58.87
60.44 61.22 61.25 63.39 64.96 65.60 65.91 66.80 66.68 66.57 66.24 65.76 65.94 65.74 65.29 64.13 63.39 62.01 60.54 60.38 59.37 58.00
61.16 61.81 63.31 64.76 65.74 66.25 66.35 66.68 66.69 66.64 65.94 65.96 65.36 65.43 64.76 63.03 62.41 61.38 59.93 59.31 59.21 58.82
61.92 63.84 65.16 65.53 65.76 66.21 66.41 66.93 66.67 66.44 66.03 66.26 66.02 64.68 63.54 63.28 62.76 60.74 59.18 59.27 58.63 58.64
63.81 65.14 65.71 65.85 65.75 66.25 66.03 66.37 66.75 66.55 66.15 65.66 65.42 64.11 63.58 62.77 61.27 60.41 59.83 59.42 58.50 58.26
65.45 66.19 66.21 65.96 65.91 66.05 66.77 66.37 66.01 66.26 66.40 65.99 65.11 63.92 61.67 61.29 60.57 60.08 59.65 59.21 58.77 58.48
65.60 66.27 67.27 67.04 66.61 66.64 66.96 65.82 65.77 65.44 65.61 64.82 63.37 62.77 61.29 60.74 59.85 59.05 58.63 58.64 58.66 58.04
65.03 65.89 66.93 67.31 66.57 65.63 65.25 64.68 64.64 63.85 63.13 62.11 62.60 52.15 53.64 58.40 59.23 58.78 58.13 57.55 57.03 56.97
64.64 64.13 63.99 63.68 64.39 64.66 63.16 63.61 62.69 60.34 60.35 58.90 57.13 48.36 50.67 54.02 60.72 58.65 57.49 56.67 56.01 56.45
64.00 63.11 63.23 62.53 62.16 60.92 61.91 60.59 58.63 57.35 57.29 56.35 52.99 46.46 47.18 50.44 58.63 57.53 57.11 56.51 56.01 56.17
63.39 62.24 61.95 60.90 59.36 59.05 58.90 57.61 56.43 56.37 55.37 54.81 52.89 46.09 46.46 55.36 57.65 56.99 56.43 56.59 56.45 57.17
63.21 62.15 61.25 60.13 59.64 59.38 59.70 57.97 57.43 55.73 55.71 50.89 52.64 45.19 46.82 54.94 57.65 57.51 57.86 57.39 55.72 48.45
62.55 61.63 61.09 59.59 60.12 59.99 59.85 58.23 56.93 55.27 55.43 55.81 54.40 49.80 45.19 48.81 57.86 58.81 58.05 57.45 56.33 54.35
MSLP
997.53 998.30 999.09 999.84 1000.43 1000.94 1001.15 1001.38 1001.89 1002.27 1002.50 1002.95 1003.57 1004.32 1004.96 1005.52 1006.01 1006.27 1006.98 1007.50 1007.97 1008.38
996.88 997.87 998.68 999.16 999.68 999.88 1000.22 1000.89 1001.44 1001.89 1002.44 1002.86 1003.51 1004.19 1004.80 1005.41 1005.75 1006.25 1006.83 1007.21 1007.71 1008.11
996.46 997.31 997.98 998.52 999.05 999.50 999.98 1000.46 1001.06 1001.81 1002.32 1002.85 1003.46 1004.08 1004.60 1005.15 1005.65 1006.12 1006.75 1007.09 1007.65 1007.96
996.02 996.68 997.42 998.09 998.61 998.87 999.46 1000.07 1000.70 1001.39 1002.10 1002.69 1003.42 1003.95 1004.43 1004.94 1005.59 1006.12 1006.62 1007.04 1007.48 1007.78
995.60 996.45 997.14 997.49 998.07 998.58 999.15 999.88 1000.34 1001.11 1001.75 1002.63 1003.13 1003.64 1004.23 1004.85 1005.40 1005.93 1006.50 1006.97 1007.37 1007.61
995.29 996.07 996.47 996.76 997.59 998.33 999.07 999.73 1000.33 1000.72 1001.53 1002.36 1002.85 1003.63 1004.15 1004.61 1005.27 1005.79 1006.27 1006.76 1007.07 1007.39
994.82 995.32 995.48 996.52 997.19 997.81 998.65 999.31 1000.07 1000.54 1001.18 1001.89 1002.54 1003.47 1004.14 1004.65 1005.21 1005.63 1006.10 1006.39 1006.74 1007.17
994.13 994.55 995.45 996.36 996.99 997.68 998.28 999.01 999.72 1000.44 1001.08 1001.72 1002.62 1003.37 1003.99 1004.50 1005.06 1005.61 1006.03 1006.28 1006.61 1006.95
994.02 994.71 995.45 996.16 996.83 997.55 998.41 999.01 999.66 1000.52 1001.16 1001.97 1002.65 1003.13 1003.67 1004.29 1004.97 1005.45 1005.85 1006.27 1006.68 1006.92
994.26 994.87 995.58 996.11 996.87 997.55 998.59 999.20 999.90 1000.81 1001.53 1002.31 1002.85 1003.24 1003.50 1004.14 1004.76 1005.33 1005.82 1006.25 1006.67 1007.02
994.30 994.76 995.33 996.13 997.04 997.83 998.68 999.43 1000.36 1001.13 1001.88 1002.56 1003.26 1003.44 1003.87 1004.31 1004.87 1005.41 1005.80 1006.11 1006.49 1006.82
994.10 994.48 995.27 996.33 997.20 997.97 999.02 999.92 1000.59 1001.41 1002.11 1002.66 1003.61 1003.87 1004.10 1004.54 1005.00 1005.52 1005.98 1006.21 1006.45 1006.67
994.12 994.53 995.63 996.56 997.52 998.40 999.24 1000.11 1000.95 1001.78 1002.38 1003.10 1003.62 1004.19 1004.42 1004.50 1005.05 1005.72 1006.07 1006.39 1006.68 1006.77
994.28 994.77 995.67 996.98 997.91 998.89 999.68 1000.52 1001.46 1002.19 1002.88 1003.37 1003.79 1004.36 1004.52 1004.65 1005.09 1005.51 1005.94 1006.35 1006.72 1006.88
Wind_Speed
14 9 9 9 6 6 6 6 8 7 7 8 7 6 6 4 5 6 5 7 5 3
12 10 10 9 8 5 5 5 9 8 8 7 7 8 7 5 6 6 5 6 5 3
12 10 8 7 8 9 7 8 9 8 8 7 7 7 8 5 5 7 4 4 6 4
8 8 8 8 8 9 9 10 11 11 9 8 8 8 7 7 7 7 6 4 6 6
8 9 10 10 10 10 11 10 11 11 9 9 10 9 9 8 7 7 7 6 6 6
9 11 11 11 11 10 10 10 10 11 11 10 10 9 7 8 7 6 6 7 6 6
12 13 12 11 11 12 12 12 11 11 11 11 11 9 7 7 6 6 6 6 6 6
10 10 12 11 11 11 12 11 11 11 10 10 9 7 8 7 7 6 6 6 5 5
9 10 12 12 12 13 11 11 11 10 10 9 5 11 11 8 6 7 6 6 4 4
11 10 11 12 12 13 11 10 10 8 8 7 7 10 12 11 6 7 6 6 5 4
12 12 13 14 13 11 10 10 8 7 7 7 4 9 12 10 6 5 5 6 6 5
13 13 13 12 11 9 10 8 6 6 8 9 6 7 11 9 6 5 5 5 5 5
13 15 13 12 11 6 9 8 7 7 6 7 8 6 8 8 5 6 4 4 3 2
11 14 14 11 9 8 9 9 8 8 7 6 5 4 6 9 5 6 5 4 3 2
Wind_Direction
200 202 204 197 181 190 184 174 168 174 164 155 147 148 153 154 174 151 161 165 168 166
198 186 189 188 179 176 151 160 168 164 166 154 149 155 155 159 157 150 162 166 164 164
187 185 176 156 170 170 159 160 157 159 156 143 151 154 156 151 139 140 159 155 162 168
173 167 159 169 174 170 161 165 163 163 151 152 158 154 145 142 149 151 157 156 174 185
161 156 167 165 167 161 168 167 160 156 146 158 158 150 150 149 161 158 169 179 176 190
157 169 174 159 162 160 156 156 155 152 155 156 152 156 156 156 160 169 176 177 180 188
171 176 160 160 159 155 159 151 155 157 156 154 152 157 154 154 164 170 182 183 177 179
158 142 146 152 150 149 153 152 155 149 148 144 152 158 158 167 167 170 171 180 180 186
131 141 155 154 150 144 145 145 146 147 147 143 151 155 155 151 158 157 160 170 173 167
143 144 147 139 142 142 144 143 145 134 133 142 143 168 160 155 156 156 158 158 160 168
147 147 138 139 142 129 139 133 137 129 132 131 117 139 142 138 134 131 147 160 168 170
154 143 134 131 126 124 123 123 122 136 132 123 127 126 137 142 126 127 146 153 161 174
154 143 136 131 125 118 125 118 122 103 105 109 129 129 143 137 125 136 137 124 129 82
152 141 132 125 125 124 119 114 112 111 109 112 129 130 155 151 141 152 145 157 168 156